Weather History for Taunton, MA

Change the Weather History Date:

Monday, March 24, 2014

  Actual Average Record
Temperature  
Mean Temperature 26 °F -  
Max Temperature 36 °F 50 °F 68 °F (1990)
Min Temperature 17 °F 27 °F 17 °F (1992)
Degree Days  
Heating Degree Days 39    
Moisture  
Dew Point -1 °F    
Average Humidity 34    
Maximum Humidity 65    
Minimum Humidity 19    
Precipitation  
Precipitation 0.00 in - - ()
Sea Level Pressure  
Sea Level Pressure 30.11 in    
Wind  
Wind Speed 8 mph (NW)    
Max Wind Speed 14 mph    
Max Gust Speed 25 mph    
Visibility 10 miles    
Events      
Averages and records for this station are not official NWS values.
T = Trace of Precipitation, MM = Missing Value Source: NWS Daily Summary

Daily Weather History Graph

Daily Weather History Graph

Search for Another Location

Airport:

Trip Planner

Search our weather history database for the weather conditions in past years. The results will help you decide how hot, cold, wet, or windy it might be!

Date:

Astronomy

Mar. 24, 2014 Rise Set
Actual Time 6:40 AM EDT 7:00 PM EDT
Civil Twilight 6:12 AM EDT 7:28 PM EDT
Nautical Twilight 5:40 AM EDT 8:01 PM EDT
Astronomical Twilight 5:06 AM EDT 8:35 PM EDT
Moon 2:12 AM EDT (3/24) 12:17 PM EDT (3/24)
Length of Visible Light 13h 15m
Length of Day
12h 20m
Last Quarter, 43% of the Moon is Illuminated
Mar 24
Last Quarter
Mar 30
New
Apr 7
First Quarter
Apr 15
Full
Apr 22
Last Quarter

Hourly Weather History & Observations

Time (EDT) Temp. Windchill Dew Point Humidity Pressure Visibility Wind Dir Wind Speed Gust Speed Precip Events Conditions
12:52 AM 27.0 °F - 3.0 °F 36% 30.05 in 10.0 mi North - - N/A   Clear
1:52 AM 25.0 °F 14.2 °F -0.0 °F 34% 30.08 in 10.0 mi NNW 11.5 mph 20.7 mph N/A   Clear
2:52 AM 21.0 °F 9.3 °F -4.0 °F 33% 30.09 in 10.0 mi NNW 11.5 mph 24.2 mph N/A   Clear
3:52 AM 19.0 °F 5.6 °F -2.9 °F 38% 30.11 in 10.0 mi NNW 13.8 mph 25.3 mph N/A   Clear
4:52 AM 19.0 °F 10.0 °F -2.0 °F 40% 30.12 in 10.0 mi NNW 6.9 mph - N/A   Clear
5:52 AM 18.0 °F 6.9 °F -2.0 °F 41% 30.13 in 10.0 mi NNW 9.2 mph - N/A   Clear
6:52 AM 17.1 °F 8.7 °F -2.0 °F 43% 30.15 in 10.0 mi NW 5.8 mph - N/A   Clear
7:52 AM 19.9 °F 10.1 °F -2.0 °F 38% 30.17 in 10.0 mi NW 8.1 mph - N/A   Clear
8:52 AM 23.0 °F 13.1 °F -2.9 °F 32% 30.16 in 10.0 mi NNW 9.2 mph - N/A   Clear
9:52 AM 26.1 °F 18.4 °F -2.9 °F 28% 30.16 in 10.0 mi Variable 6.9 mph - N/A   Clear
10:52 AM 27.0 °F 18.0 °F -5.1 °F 25% 30.15 in 10.0 mi WNW 9.2 mph - N/A   Clear
11:52 AM 30.0 °F 21.7 °F -4.0 °F 23% 30.13 in 10.0 mi NNW 9.2 mph - N/A   Clear
12:52 PM 30.9 °F 23.5 °F -2.9 °F 23% 30.12 in 10.0 mi NNW 8.1 mph - N/A   Clear
1:52 PM 33.1 °F 26.1 °F -2.0 °F 22% 30.09 in 10.0 mi WNW 8.1 mph 17.3 mph N/A   Clear
2:52 PM 33.1 °F 24.9 °F -2.0 °F 22% 30.07 in 10.0 mi WNW 10.4 mph 19.6 mph N/A   Clear
3:52 PM 35.1 °F 26.9 °F -2.9 °F 20% 30.05 in 10.0 mi NW 11.5 mph - N/A   Clear
4:52 PM 34.0 °F 29.8 °F -5.1 °F 19% 30.04 in 10.0 mi Variable 4.6 mph 17.3 mph N/A   Clear
5:52 PM 34.0 °F 28.0 °F -2.9 °F 21% 30.05 in 10.0 mi WNW 6.9 mph - N/A   Clear
6:52 PM 30.9 °F 27.5 °F -4.0 °F 22% 30.06 in 10.0 mi WNW 3.5 mph - N/A   Clear
7:52 PM 25.0 °F - 5.0 °F 43% 30.09 in 10.0 mi Calm Calm - N/A   Clear
8:52 PM 27.0 °F 23.0 °F 1.9 °F 34% 30.12 in 10.0 mi West 3.5 mph - N/A   Clear
9:52 PM 19.9 °F - 8.1 °F 60% 30.13 in 10.0 mi Calm Calm - N/A   Clear
10:52 PM 19.0 °F - 7.0 °F 59% 30.14 in 10.0 mi Calm Calm - N/A   Clear
11:52 PM 17.1 °F - 7.0 °F 65% 30.14 in 10.0 mi Calm Calm - N/A   Clear